STARLINK-1270, 45237

Orbit data source: Space-Track

STARLINK-1270, 45237 is a payload satellite owned by SpaceX/Seattle (US) in LEO that was launched on Mon, 17 Feb 2020 UTC via an FALCON 9 launch vehicle from the Air Force Eastern Test Range (AFETR). Payload-class satellites include a variety of spacecraft equipped with specific instruments for various scientific and technological missions. These include communications satellites like Starlink; space stations such as the ISS; scientific satellites like the Hubble; Earth observation satellites from companies like Planet Labs, Umbra, and HawkEye 360; GPS; miniature CubeSats for education and research; and military/defense satellites.

Loading next visibility...
Identifier
45237, 2020-012BM
Orbit
LEO
Country
Flag of USUS
Related business
Manufacturer
SpaceX/Seattle
Mission
Partially operational Commercial Communications
Bus & Motor
STARLINK, Unknown motor
Mass
260 kg wet, ~248 kg dry
Launch date (UTC)
2020-02-17 (6 years ago)
Launch vehicle
FALCON 9
Launch site
Air Force Eastern Test Range (AFETR)
Object type
Payload
Rocket body
Debris
Shape & HBR
Box + 1 Pan, 10.1 m
Radar Cross Section
13.562 m², Large (>1 m²)

Expand to show TLE details & history
Last TLE update: 12 hours ago

TLE from 12 hours ago
0 STARLINK-1270
1 45237U 20012BM  26073.94290776  .00082729  00000-0  15516-2 0  9996
2 45237  53.0501 322.4453 0003733 120.0718 240.0660 15.47945099336480
Epoch: 2026-03-14T22:37Z
TLE epoch observation values (Epoch: 2026-03-14T22:37:47.230Z)
Latitude
0.00001°
Longitude
170.44167°
Altitude
424.9 km
Speed
7.657 km/s
True Right ascension
21h 29m 46s
True Declination
0° 00' 00"
Sunlit
Object was in daylight at epoch
Visualization orbit readout
Latitude
Unknown
Longitude
Unknown
Altitude
Unknown
Speed
Unknown
Apparent Right ascension
Unknown
Apparent Declination
Unknown
Sunlit
N/A
Visualization observer readout
Local Sidereal Time
15:09:24
Azimuth
Unknown
Elevation
Unknown
Doppler factor
Unknown
Orbital elements
Apogee altitude
425.553 km
Perigee altitude
420.476 km
Semi-major axis
6,801.151 km
Eccentricity
0.00037
Inclination
53.0501°
RAAN
322.4453°
Arg. of periapsis
120.0718°
True anomaly
240.02894°
Mean anomaly
240.066°
Eccentric anomaly
240.04747°
Mean motion
3.86963 °/min
Orbital period
93.03 mins
BSTAR
0.0015516
Loading maneuver chart data...
Computing Atmospheric mass density...

Documentation

Showing up to 5 results
|